This is the latest recevied weather packets stored in our database for station/object WC4PEM-7. If no packets are shown the sender has not sent any weather packets the latest 10 day(s).
| Time | Temp. | Humidity | Pressure | Rain* | Wind** | Luminosity | Snow |
|---|---|---|---|---|---|---|---|
| 1778000312 | 27.78° C | 56% | 1016 hPa | 0 mm | - | - | - |
| 1778000012 | 27.78° C | 57% | 1016 hPa | 0 mm | - | - | - |
| 1777999712 | 27.78° C | 57% | 1016.1 hPa | 0 mm | - | - | - |
| 1777999412 | 27.78° C | 59% | 1016 hPa | 0 mm | - | - | - |
| 1777999226 | 27.22° C | 58% | 1016 hPa | 0 mm | - | - | - |
| 1777999112 | 27.22° C | 58% | 1016 hPa | 0 mm | - | - | - |
| 1777998812 | 26.67° C | 62% | 1016.2 hPa | 0 mm | - | - | - |
| 1777998512 | 26.67° C | 60% | 1016.3 hPa | 0 mm | - | - | - |
| 1777998212 | 26.67° C | 60% | 1016.2 hPa | 0 mm | - | - | - |
| 1777997912 | 26.67° C | 63% | 1016.1 hPa | 0 mm | - | - | - |
| 1777997760 | 26.67° C | 62% | 1016.2 hPa | 0 mm | - | - | - |
| 1777997612 | 26.67° C | 62% | 1016.2 hPa | 0 mm | - | - | - |
| 1777997312 | 26.67° C | 62% | 1016.3 hPa | 0 mm | - | - | - |
| 1777997125 | 26.67° C | 62% | 1016.3 hPa | 0 mm | - | - | - |
| 1777997012 | 26.67° C | 62% | 1016.3 hPa | 0 mm | - | - | - |
| 1777996971 | 26.67° C | 62% | 1016.2 hPa | 0 mm | - | - | - |
| 1777996824 | 26.67° C | 62% | 1016.2 hPa | 0 mm | - | - | - |
| 1777996712 | 26.67° C | 62% | 1016.2 hPa | 0 mm | - | - | - |
| 1777996666 | 26.67° C | 63% | 1016.3 hPa | 0 mm | - | - | - |
| 1777996412 | 26.67° C | 63% | 1016.3 hPa | 0 mm | - | - | - |
| 1777996225 | 26.67° C | 62% | 1016.4 hPa | 0 mm | - | - | - |
| 1777996112 | 26.67° C | 62% | 1016.4 hPa | 0 mm | - | - | - |
| 1777995812 | 26.11° C | 61% | 1016.2 hPa | 0 mm | - | - | - |
| 1777995512 | 26.11° C | 62% | 1016.4 hPa | 0 mm | - | - | - |
| 1777995212 | 26.67° C | 62% | 1016.2 hPa | 0 mm | - | - | - |
* Rain latest hour (hover to see other rain measurements)
** Current wind speed in m/s (hover to see current wind gust speed)